Orbital Elements at Epoch 2459200.5 (2020-Dec-17.0) TDB
Reference: JPL 17 (heliocentric ecliptic J2000)
Element | Value | Uncertainty (1-sigma) | Units |
e | .2607519226175383 | 4.6331e-08 | |
a | 2.671716888917122 | 1.6076e-08 | au |
q | 1.975061573442234 | 1.2615e-07 | au |
i | 15.75171006501683 | 5.2501e-06 | deg |
node | 89.02447481156594 | 1.5362e-05 | deg |
peri | 344.5007428343159 | 1.9202e-05 | deg |
M | 358.0457509870536 | 7.9267e-06 | deg |
tp | 2459209.158875217209 (2020-Dec-25.65887522) | 3.5098e-05 | TDB |
period | 1595.085916658757 4.37 | 1.4397e-05 3.942e-08 | d yr |
n | .2256931719101977 | 2.037e-09 | deg/d |
Q | 3.368372204392009 | 2.0268e-08 | au |
|
| | Orbit Determination Parameters
Additional Information
|